Weather History for Sisseton, SD

Change the Weather History Date:

Sunday, December 30, 2012

  Actual Average Record
Temperature  
Mean Temperature 10 °F 14 °F  
Max Temperature 22 °F 23 °F 48 °F (1956)
Min Temperature -2 °F 5 °F -27 °F (1967)
Degree Days  
Heating Degree Days 55 51  
Month to date heating degree days 1471 1438  
Since 1 July heating degree days 3314 3289  
Cooling Degree Days 0 0  
Month to date cooling degree days 0 0  
Year to date cooling degree days 712 527  
Moisture  
Dew Point 7 °F    
Average Humidity 82    
Maximum Humidity 91    
Minimum Humidity 73    
Precipitation  
Precipitation 0.00 in 0.02 in 0.83 in (1972)
Month to date precipitation 0.75 0.38  
Year to date precipitation 17.52 22.32  
Snow  
Snow 0.00 in - - ()
Month to date snowfall 9.0  
Since 1 July snowfall 9.0  
Snow Depth 6.00 in    
Sea Level Pressure  
Sea Level Pressure 30.10 in    
Wind  
Wind Speed 9 mph (East)    
Max Wind Speed 22 mph    
Max Gust Speed 28 mph    
T = Trace of Precipitation, MM = Missing Value Source: NWS Daily Summary

Daily Weather History Graph

Daily Weather History Graph

Search for Another Location

Airport:

Trip Planner

Search our weather history database for the weather conditions in past years. The results will help you decide how hot, cold, wet, or windy it might be!

Date:

Astronomy

Dec. 30, 2012 Rise Set
Actual Time 8:08 AM CST 4:53 PM CST
Civil Twilight 7:34 AM CST 5:27 PM CST
Nautical Twilight 6:56 AM CST 6:05 PM CST
Astronomical Twilight 6:20 AM CST 6:41 PM CST
Moon 7:33 PM CST (12/30) 9:10 AM CST (12/30)
Length of Visible Light 9h 53m
Length of Day
8h 44m
Waning Gibbous, 95% of the Moon is Illuminated
Dec 30
Waning Gibbous
Jan 4
Last Quarter
Jan 11
New
Jan 18
First Quarter
Jan 26
Full

Hourly Weather History & Observations

Time (CST) Temp. Windchill Dew Point Humidity Pressure Visibility Wind Dir Wind Speed Gust Speed Precip Events Conditions
12:56 AM -0.9 °F -14.1 °F -5.1 °F 83% 30.19 in - SE 6.9 mph - N/A   Unknown
1:56 AM -0.9 °F -11.0 °F -5.1 °F 83% 30.20 in - ESE 4.6 mph - N/A   Unknown
2:56 AM 3.0 °F -4.4 °F 1.0 °F 91% 30.19 in - SE 3.5 mph - N/A   Unknown
3:56 AM 3.9 °F -8.2 °F 1.0 °F 88% 30.17 in - SE 6.9 mph - N/A   Unknown
4:56 AM 1.0 °F -12.9 °F -2.0 °F 87% 30.17 in - SE 8.1 mph - N/A   Unknown
5:56 AM 3.0 °F -9.3 °F -0.9 °F 84% 30.14 in - SE 6.9 mph - N/A   Unknown
6:56 AM 7.0 °F -5.7 °F 3.9 °F 87% 30.13 in - SE 8.1 mph - N/A   Unknown
7:56 AM 9.0 °F -3.2 °F 5.0 °F 84% 30.12 in - SE 8.1 mph - N/A   Unknown
8:56 AM 7.0 °F -1.7 °F 3.9 °F 87% 30.11 in - SSE 4.6 mph - N/A   Unknown
9:56 AM 8.1 °F -0.5 °F 3.9 °F 83% 30.09 in - SE 4.6 mph - N/A   Unknown
10:56 AM 10.9 °F 1.4 °F 6.1 °F 81% 30.06 in - ESE 5.8 mph - N/A   Unknown
11:56 AM 12.9 °F 2.6 °F 7.0 °F 77% 30.02 in - ENE 6.9 mph - N/A   Unknown
12:56 PM 15.1 °F - 9.0 °F 77% 30.00 in - Calm Calm - N/A   Unknown
1:56 PM 12.9 °F 3.8 °F 7.0 °F 77% 29.97 in - NNE 5.8 mph - N/A   Unknown
2:56 PM 14.0 °F - 9.0 °F 80% 29.97 in - Calm Calm - N/A   Unknown
3:56 PM 16.0 °F - 9.0 °F 74% 29.99 in - Calm Calm - N/A   Unknown
4:56 PM 12.0 °F -0.4 °F 8.1 °F 84% 30.02 in - North 9.2 mph - N/A   Unknown
5:56 PM 17.1 °F 3.6 °F 12.0 °F 81% 30.04 in - NNW 12.7 mph - 0.01 in   Unknown
6:56 PM 21.0 °F 6.2 °F 16.0 °F 81% 30.06 in - NNW 18.4 mph - N/A   Unknown
7:56 PM 21.0 °F 5.4 °F 17.1 °F 85% 30.10 in - North 20.7 mph - N/A   Unknown
8:56 PM 21.9 °F 7.3 °F 18.0 °F 85% 30.12 in - North 18.4 mph - N/A   Unknown
9:56 PM 19.0 °F 3.2 °F 15.1 °F 85% 30.15 in - North 19.6 mph - N/A   Unknown
10:56 PM 18.0 °F 4.2 °F 14.0 °F 84% 30.18 in - North 13.8 mph - N/A   Unknown
11:56 PM 18.0 °F 3.6 °F 12.9 °F 81% 30.18 in - North 15.0 mph - N/A   Unknown